GW4613 Weather Reports


Display with metric or nautical units.
time (UTC)temp
F
wind
direction
speed
MPH
gust
MPH
rain 1hr
in
rain 24hr
in
rain mn
in
humidity
%
barometer
mb
20260507201148 68 355 4.0 13.0 0.00 0.00 0.00 33 1009.1
20260507200644 67 358 0.0 8.0 0.00 0.00 0.00 35 1009.1
20260507200140 69 297 7.0 14.0 0.00 0.00 0.00 36 1009.2
20260507195637 68 325 6.0 9.0 0.00 0.00 0.00 34 1009.1
20260507195134 69 337 4.0 16.0 0.00 0.00 0.00 35 1009.0
20260507194631 68 49 3.0 6.0 0.00 0.00 0.00 36 1009.1
20260507194126 69 59 5.0 8.0 0.00 0.00 0.00 36 1009.3
20260507193624 69 114 2.0 4.0 0.00 0.00 0.00 37 1009.4
20260507193121 68 50 6.0 9.0 0.00 0.00 0.00 34 1009.4
20260507192617 68 332 2.0 14.0 0.00 0.00 0.00 36 1009.3
20260507192114 69 8 2.0 8.0 0.00 0.00 0.00 35 1009.5
20260507191609 69 351 0.0 3.0 0.00 0.00 0.00 36 1009.7
20260507191107 67 4 4.0 6.0 0.00 0.00 0.00 36 1009.6
20260507190604 68 296 2.0 3.0 0.00 0.00 0.00 39 1009.6
20260507185600 69 15 1.0 2.0 0.00 0.00 0.00 39 1009.7
20260507185056 68 238 2.0 6.0 0.00 0.00 0.00 38 1009.9
20260507184555 67 285 4.0 8.0 0.00 0.00 0.00 39 1010.0
20260507184052 68 289 5.0 7.0 0.00 0.00 0.00 40 1010.2
20260507183548 66 261 8.0 13.0 0.00 0.00 0.00 44 1010.0
20260507183045 67 292 9.0 11.0 0.00 0.00 0.00 40 1010.0
20260507182542 67 351 4.0 9.0 0.00 0.00 0.00 37 1010.2
20260507182037 66 338 4.0 8.0 0.00 0.00 0.00 39 1010.1
20260507181535 65 4 3.0 13.0 0.00 0.00 0.00 42 1010.2
20260507181031 64 235 2.0 7.0 0.00 0.00 0.00 42 1010.1
20260507180527 63 3 1.0 4.0 0.00 0.00 0.00 43 1010.2
20260507180025 63 337 1.0 4.0 0.00 0.00 0.00 45 1010.3
20260507175521 64 272 5.0 9.0 0.00 0.00 0.00 44 1010.6
20260507175019 65 286 6.0 9.0 0.00 0.00 0.00 45 1010.6
20260507174515 65 250 2.0 4.0 0.00 0.00 0.00 49 1010.8
20260507174013 65 123 3.0 6.0 0.00 0.00 0.00 41 1010.7
20260507173510 66 39 1.0 6.0 0.00 0.00 0.00 43 1011.1
20260507173007 65 248 3.0 6.0 0.00 0.00 0.00 45 1011.1
20260507172503 64 213 2.0 2.0 0.00 0.00 0.00 44 1011.3
20260507172000 65 44 4.0 6.0 0.00 0.00 0.00 42 1011.3
20260507171455 64 50 2.0 6.0 0.00 0.00 0.00 46 1011.3
20260507170953 63 0 4.0 8.0 0.00 0.00 0.00 44 1011.4
20260507170449 63 92 4.0 10.0 0.00 0.00 0.00 45 1011.5
20260507165946 63 291 7.0 10.0 0.00 0.00 0.00 45 1011.5
20260507165442 63 53 1.0 10.0 0.00 0.00 0.00 48 1011.6
20260507164938 63 274 4.0 10.0 0.00 0.00 0.00 43 1011.8
20260507164435 63 263 3.0 7.0 0.00 0.00 0.00 50 1011.7
20260507163932 63 288 7.0 15.0 0.00 0.00 0.00 48 1011.7
20260507163429 63 268 1.0 13.0 0.00 0.00 0.00 46 1012.0
20260507162926 62 292 6.0 11.0 0.00 0.00 0.00 47 1012.1
20260507162421 61 359 2.0 8.0 0.00 0.00 0.00 48 1012.1
20260507161919 62 268 7.0 15.0 0.00 0.00 0.00 47 1012.3
20260507161415 63 284 2.0 8.0 0.00 0.00 0.00 46 1012.3
20260507160912 64 25 4.0 4.0 0.00 0.00 0.00 45 1012.6
20260507160408 63 281 2.0 3.0 0.00 0.00 0.00 47 1012.4
20260507155904 61 7 1.0 6.0 0.00 0.00 0.00 49 1012.4
20260507155400 61 297 4.0 7.0 0.00 0.00 0.00 49 1012.6
20260507154857 61 273 1.0 6.0 0.00 0.00 0.00 50 1012.5
20260507154354 60 25 1.0 4.0 0.00 0.00 0.00 48 1012.7
20260507153851 60 13 2.0 4.0 0.00 0.00 0.00 47 1012.9
20260507153347 61 326 4.0 7.0 0.00 0.00 0.00 47 1012.8
20260507152844 60 307 4.0 7.0 0.00 0.00 0.00 47 1012.9
20260507152340 60 270 3.0 8.0 0.00 0.00 0.00 46 1012.9
20260507151836 59 318 0.0 4.0 0.00 0.00 0.00 51 1012.8
20260507151333 59 297 7.0 9.0 0.00 0.00 0.00 48 1013.0
20260507150830 59 302 4.0 6.0 0.00 0.00 0.00 49 1013.4
20260507150326 60 254 3.0 6.0 0.00 0.00 0.00 47 1013.4
20260507145822 60 303 2.0 3.0 0.00 0.00 0.00 49 1013.5
20260507145319 58 246 3.0 6.0 0.00 0.00 0.00 48 1013.7
20260507144816 59 299 6.0 9.0 0.00 0.00 0.00 49 1013.6
20260507144313 60 322 4.0 6.0 0.00 0.00 0.00 50 1013.9
20260507143810 58 228 1.0 3.0 0.00 0.00 0.00 50 1013.9
20260507143307 57 353 3.0 6.0 0.00 0.00 0.00 50 1014.1
20260507142803 57 51 3.0 6.0 0.00 0.00 0.00 53 1014.2
20260507142259 57 98 5.0 8.0 0.00 0.00 0.00 52 1014.1
20260507141756 56 288 2.0 3.0 0.00 0.00 0.00 54 1014.0
20260507141254 56 46 5.0 7.0 0.00 0.00 0.00 54 1014.1
20260507140749 55 51 3.0 7.0 0.00 0.00 0.00 55 1014.3
20260507140247 55 72 4.0 8.0 0.00 0.00 0.00 57 1014.3
20260507135744 54 286 4.0 6.0 0.00 0.00 0.00 57 1014.4
20260507135241 54 279 3.0 6.0 0.00 0.00 0.00 54 1014.4
20260507134737 54 12 1.0 7.0 0.00 0.00 0.00 56 1014.6
20260507134234 54 301 0.0 3.0 0.00 0.00 0.00 56 1014.7
20260507133730 53 13 3.0 6.0 0.00 0.00 0.00 57 1014.7
20260507133227 53 18 3.0 7.0 0.00 0.00 0.00 56 1014.8
20260507132724 53 55 2.0 2.0 0.00 0.00 0.00 56 1014.6
20260507132221 53 302 3.0 4.0 0.00 0.00 0.00 57 1015.0
20260507131717 53 17 3.0 4.0 0.00 0.00 0.00 56 1014.9
20260507131215 53 345 3.0 6.0 0.00 0.00 0.00 56 1014.9
20260507130712 53 342 2.0 4.0 0.00 0.00 0.00 56 1014.7
20260507130209 53 232 1.0 2.0 0.00 0.00 0.00 59 1014.8
20260507125708 52 48 2.0 4.0 0.00 0.00 0.00 60 1015.0
20260507125205 52 115 0.0 2.0 0.00 0.00 0.00 61 1015.0
20260507124701 52 186 2.0 2.0 0.00 0.00 0.00 61 1015.1
20260507124159 52 13 1.0 3.0 0.00 0.00 0.00 61 1014.9
20260507123657 52 18 0.0 1.0 0.00 0.00 0.00 61 1015.0
20260507123154 52 124 0.0 2.0 0.00 0.00 0.00 63 1015.1
20260507122649 52 72 1.0 2.0 0.00 0.00 0.00 65 1014.8
20260507122145 51 83 2.0 3.0 0.00 0.00 0.00 65 1014.9
20260507121641 51 76 2.0 2.0 0.00 0.00 0.00 68 1014.6
20260507121137 51 89 1.0 3.0 0.00 0.00 0.00 66 1014.7
20260507120633 51 64 1.0 2.0 0.00 0.00 0.00 68 1014.9
20260507120130 51 95 2.0 3.0 0.00 0.00 0.00 66 1014.7
20260507115627 51 53 2.0 3.0 0.00 0.00 0.00 65 1014.7
20260507115122 51 74 2.0 7.0 0.00 0.00 0.00 65 1014.7
20260507114618 51 45 2.0 7.0 0.00 0.00 0.00 65 1014.5
20260507114116 51 358 4.0 6.0 0.00 0.00 0.00 66 1014.7
20260507113613 51 79 1.0 6.0 0.00 0.00 0.00 65 1014.6
20260507113110 51 3 2.0 6.0 0.00 0.00 0.00 66 1014.7
20260507112608 51 30 2.0 7.0 0.00 0.00 0.00 67 1014.3
20260507112104 51 42 2.0 3.0 0.00 0.00 0.00 69 1014.2
20260507111602 51 72 2.0 3.0 0.00 0.00 0.00 71 1014.2
20260507111058 51 60 2.0 3.0 0.00 0.00 0.00 70 1014.2
20260507110554 51 30 1.0 2.0 0.00 0.00 0.00 70 1014.2
20260507110051 51 29 2.0 3.0 0.00 0.00 0.00 71 1014.1
20260507105548 51 59 1.0 2.0 0.00 0.00 0.00 73 1014.1
20260507105044 51 20 0.0 2.0 0.00 0.00 0.00 73 1014.3
20260507104542 52 10 1.0 2.0 0.00 0.00 0.00 73 1014.0
20260507104038 52 347 1.0 4.0 0.00 0.00 0.00 74 1014.1
20260507103534 52 343 4.0 4.0 0.00 0.00 0.00 73 1013.9
20260507103031 52 1 3.0 4.0 0.00 0.00 0.00 74 1013.9
20260507102527 52 348 2.0 6.0 0.00 0.00 0.00 75 1013.8
20260507102023 52 330 3.0 4.0 0.00 0.00 0.00 75 1013.8
20260507101519 52 60 1.0 3.0 0.00 0.00 0.00 76 1013.7
20260507101016 52 309 1.0 3.0 0.00 0.00 0.00 76 1013.4
20260507100513 52 335 3.0 8.0 0.00 0.00 0.00 75 1013.6
20260507100011 52 347 3.0 7.0 0.00 0.00 0.00 78 1013.6
20260507095509 52 316 3.0 3.0 0.00 0.00 0.00 78 1013.5
20260507095005 52 0 0.0 3.0 0.00 0.00 0.00 79 1013.6
20260507094501 52 349 4.0 4.0 0.00 0.00 0.00 79 1013.4
20260507093958 52 339 2.0 3.0 0.00 0.00 0.00 79 1013.5
20260507093456 53 56 4.0 4.0 0.00 0.00 0.00 79 1013.5
20260507092954 53 286 1.0 1.0 0.00 0.00 0.00 79 1013.4
20260507092450 53 348 2.0 2.0 0.00 0.00 0.00 79 1013.5
20260507091947 52 34 1.0 1.0 0.00 0.00 0.00 79 1013.4
20260507091444 52 343 0.0 0.0 0.00 0.00 0.00 79 1013.2
20260507090940 53 53 0.0 1.0 0.00 0.00 0.00 79 1013.2
20260507090436 52 99 0.0 1.0 0.00 0.00 0.00 78 1013.2
20260507085932 52 91 0.0 1.0 0.00 0.00 0.00 82 1013.1
20260507085430 53 91 1.0 2.0 0.00 0.00 0.00 80 1013.4
20260507084927 53 303 0.0 0.0 0.00 0.00 0.00 79 1013.2
20260507084424 53 69 0.0 1.0 0.00 0.00 0.00 79 1013.4
20260507083921 53 312 1.0 2.0 0.00 0.00 0.00 78 1013.5
20260507083417 52 301 2.0 3.0 0.00 0.00 0.00 79 1013.2
20260507082913 52 314 2.0 2.0 0.00 0.00 0.00 83 1013.4
20260507082409 52 222 0.0 1.0 0.00 0.00 0.00 82 1013.4
20260507081906 52 139 0.0 0.0 0.00 0.00 0.00 82 1013.2
20260507081402 52 141 0.0 0.0 0.00 0.00 0.00 82 1013.2
20260507080859 52 223 0.0 1.0 0.00 0.00 0.00 82 1013.5
20260507080355 52 146 0.0 1.0 0.00 0.00 0.00 82 1013.2
20260507075851 52 313 1.0 2.0 0.00 0.00 0.00 83 1013.4
20260507075347 52 135 0.0 1.0 0.00 0.00 0.00 83 1013.2
20260507074843 52 97 1.0 2.0 0.00 0.00 0.00 84 1013.0
20260507074341 52 217 0.0 0.0 0.00 0.00 0.00 83 1013.0
20260507073838 53 230 0.0 1.0 0.00 0.00 0.00 82 1012.9
20260507073335 53 252 1.0 1.0 0.00 0.00 0.00 80 1012.9
20260507072832 53 287 0.0 0.0 0.00 0.00 0.00 79 1012.8
20260507072329 53 271 0.0 0.0 0.00 0.00 0.00 79 1012.9
20260507071827 52 297 1.0 1.0 0.00 0.00 0.00 80 1013.1
20260507071324 53 292 0.0 1.0 0.00 0.00 0.00 83 1012.9
20260507070820 53 149 0.0 0.0 0.00 0.00 0.00 80 1013.0
20260507070317 53 264 0.0 0.0 0.00 0.00 0.00 80 1013.0
20260507065814 53 151 0.0 0.0 0.00 0.00 0.00 80 1012.9
20260507065310 53 226 0.0 0.0 0.00 0.00 0.00 82 1013.0
20260507064808 52 151 0.0 0.0 0.00 0.00 0.00 82 1013.0
20260507064307 52 168 0.0 0.0 0.00 0.00 0.00 85 1013.0
20260507063804 52 164 0.0 0.0 0.00 0.00 0.00 85 1013.2
20260507063301 52 248 0.0 0.0 0.00 0.00 0.00 83 1013.5
20260507062757 52 276 0.0 0.0 0.00 0.00 0.00 84 1013.4
20260507062254 52 112 0.0 0.0 0.00 0.00 0.00 84 1013.7
20260507061753 52 116 0.0 0.0 0.00 0.00 0.00 84 1013.7
20260507061250 53 153 0.0 0.0 0.00 0.00 0.00 85 1013.7
20260507060748 53 107 0.0 0.0 0.00 0.00 0.00 82 1014.1
20260507060244 53 66 0.0 0.0 0.00 0.00 0.00 81 1013.8
20260507055741 53 114 0.0 0.0 0.00 0.00 0.00 83 1013.8
20260507055236 53 97 0.0 0.0 0.00 0.00 0.00 83 1013.8
20260507054733 53 90 0.0 0.0 0.00 0.00 0.00 82 1013.8
20260507054230 53 81 0.0 0.0 0.00 0.00 0.00 82 1014.0
20260507053727 53 59 1.0 4.0 0.00 0.00 0.00 82 1013.8
20260507053225 53 101 1.0 1.0 0.00 0.00 0.00 84 1013.6
20260507052724 53 105 1.0 2.0 0.00 0.00 0.00 84 1013.8
20260507052219 53 4 4.0 6.0 0.00 0.00 0.00 84 1013.7
20260507051717 53 32 1.0 3.0 0.00 0.00 0.00 83 1013.7
20260507051214 53 58 0.0 1.0 0.00 0.00 0.00 84 1013.6
20260507050711 53 56 1.0 3.0 0.00 0.00 0.00 83 1013.4
20260507050208 53 49 1.0 3.0 0.00 0.00 0.00 83 1013.4
20260507045704 53 65 2.0 3.0 0.00 0.00 0.00 84 1013.1
20260507045201 53 35 2.0 3.0 0.00 0.00 0.00 83 1013.4
20260507044658 53 88 2.0 3.0 0.00 0.00 0.00 83 1013.7
20260507044154 54 88 1.0 2.0 0.00 0.00 0.00 83 1013.4
20260507043651 54 66 2.0 4.0 0.00 0.00 0.00 83 1013.2
20260507043148 54 37 2.0 3.0 0.00 0.00 0.00 84 1013.4
20260507042644 54 21 1.0 3.0 0.00 0.00 0.00 84 1013.2
20260507042139 54 36 4.0 6.0 0.00 0.00 0.00 85 1013.1
20260507041636 55 41 3.0 6.0 0.00 0.00 0.00 85 1013.5
20260507041132 55 64 3.0 6.0 0.00 0.00 0.00 85 1012.8
20260507040630 55 41 3.0 8.0 0.00 0.00 0.00 85 1012.7
20260507040126 55 101 2.0 6.0 0.00 0.08 0.08 84 1012.8
20260507035622 55 13 3.0 10.0 0.00 0.08 0.08 84 1013.5
20260507035118 55 26 6.0 11.0 0.00 0.08 0.08 84 1013.6
20260507034615 55 42 3.0 4.0 0.00 0.08 0.08 85 1013.5
20260507034113 55 51 2.0 4.0 0.00 0.08 0.08 84 1013.2
20260507033611 56 89 1.0 3.0 0.00 0.08 0.08 84 1012.7
20260507033108 56 69 1.0 2.0 0.00 0.08 0.08 84 1012.8
20260507032605 56 132 0.0 3.0 0.00 0.08 0.08 83 1013.1
20260507032101 56 124 0.0 0.0 0.00 0.08 0.08 82 1013.0
20260507031558 56 130 2.0 4.0 0.00 0.08 0.08 82 1012.8
20260507031055 56 144 1.0 3.0 0.00 0.08 0.08 82 1013.0
20260507030551 57 183 4.0 4.0 0.00 0.08 0.08 82 1013.4
20260507030049 57 58 1.0 2.0 0.00 0.08 0.08 82 1013.4
20260507025546 57 37 1.0 2.0 0.00 0.08 0.08 83 1013.0
20260507025038 57 88 1.0 4.0 0.00 0.08 0.08 82 1012.7
20260507024535 57 20 1.0 3.0 0.00 0.08 0.08 82 1012.9
20260507024032 57 320 1.0 2.0 0.00 0.08 0.08 82 1012.8
20260507023528 57 25 3.0 7.0 0.00 0.08 0.08 82 1012.8
20260507023026 57 128 2.0 3.0 0.00 0.08 0.08 83 1012.5
20260507022522 57 94 1.0 2.0 0.00 0.08 0.08 82 1012.9
20260507022017 57 157 1.0 2.0 0.00 0.08 0.08 83 1012.7
20260507021514 57 140 1.0 3.0 0.00 0.08 0.08 82 1012.8
20260507021010 57 102 1.0 4.0 0.00 0.08 0.08 82 1012.6
20260507020508 58 85 3.0 9.0 0.00 0.08 0.08 82 1012.5
20260507020004 58 331 0.0 3.0 0.00 0.08 0.08 83 1012.4
20260507015503 58 92 0.0 7.0 0.00 0.08 0.08 83 1012.0
20260507015001 58 89 1.0 2.0 0.00 0.08 0.08 84 1012.3
20260507014457 58 33 2.0 2.0 0.00 0.08 0.08 83 1012.1
20260507013953 58 47 0.0 2.0 0.00 0.08 0.08 82 1012.2
20260507013449 58 21 2.0 3.0 0.00 0.08 0.08 83 1012.1
20260507012947 58 28 1.0 2.0 0.00 0.08 0.08 84 1012.2
20260507012443 58 66 2.0 4.0 0.00 0.08 0.08 84 1012.3
20260507011940 58 6 2.0 4.0 0.00 0.08 0.08 84 1012.5
20260507011437 59 38 2.0 7.0 0.00 0.08 0.08 83 1012.3
20260507010937 59 24 2.0 4.0 0.00 0.08 0.08 84 1011.9
20260507010432 59 29 2.0 3.0 0.00 0.08 0.08 85 1012.0
20260507005929 59 32 2.0 2.0 0.00 0.08 0.08 84 1012.0
20260507005427 59 93 2.0 3.0 0.00 0.08 0.08 86 1012.0
20260507004923 59 58 3.0 4.0 0.00 0.08 0.08 85 1011.8
20260507004420 60 69 2.0 2.0 0.00 0.08 0.08 84 1011.9
20260507003917 60 65 1.0 1.0 0.00 0.08 0.08 85 1012.1
20260507003412 60 49 3.0 3.0 0.00 0.08 0.08 84 1012.1
20260507002908 61 40 1.0 3.0 0.00 0.08 0.08 83 1012.3
20260507002404 61 70 2.0 4.0 0.00 0.08 0.08 83 1012.2
20260507001902 61 70 1.0 2.0 0.00 0.08 0.08 83 1012.0
20260507001358 61 62 0.0 3.0 0.00 0.08 0.08 83 1011.7
20260507000855 61 64 1.0 3.0 0.00 0.08 0.08 84 1011.8
20260507000350 62 4 1.0 3.0 0.00 0.08 0.08 83 1011.9
20260506235847 62 42 1.0 2.0 0.00 0.08 0.08 83 1011.9
20260506235344 62 84 1.0 1.0 0.00 0.08 0.08 83 1012.0
20260506234840 62 341 1.0 2.0 0.00 0.08 0.08 83 1011.9
20260506234338 62 333 4.0 4.0 0.00 0.08 0.08 82 1011.6
20260506233835 62 1 3.0 4.0 0.00 0.08 0.08 84 1011.6
20260506233331 62 98 1.0 3.0 0.00 0.08 0.08 83 1011.7
20260506232828 62 93 2.0 3.0 0.00 0.08 0.08 85 1011.5
20260506232324 62 81 0.0 1.0 0.00 0.08 0.08 85 1011.5
20260506231820 62 82 1.0 3.0 0.00 0.08 0.08 84 1011.3
20260506231318 63 51 5.0 9.0 0.00 0.08 0.08 84 1011.1
20260506230815 63 108 1.0 3.0 0.00 0.08 0.08 83 1010.9
20260506230312 63 272 0.0 2.0 0.00 0.08 0.08 84 1010.9
20260506225808 63 106 3.0 7.0 0.00 0.08 0.08 83 1010.8
20260506225306 63 213 2.0 2.0 0.00 0.08 0.08 85 1010.7
20260506224802 63 153 2.0 2.0 0.00 0.08 0.08 84 1010.6
20260506224259 64 111 3.0 7.0 0.00 0.08 0.08 83 1010.7
20260506223756 64 58 1.0 2.0 0.00 0.08 0.08 84 1010.5
20260506223251 64 97 2.0 3.0 0.00 0.08 0.08 82 1010.5
20260506222748 65 316 2.0 4.0 0.00 0.08 0.08 81 1010.4
20260506222244 65 265 3.0 4.0 0.00 0.08 0.08 81 1010.4
20260506221742 65 336 9.0 10.0 0.00 0.08 0.08 80 1010.4
20260506221240 66 335 2.0 13.0 0.00 0.08 0.08 80 1010.1
20260506220737 66 357 3.0 4.0 0.00 0.08 0.08 80 1010.0
20260506220231 66 350 3.0 8.0 0.00 0.08 0.08 79 1010.2
20260506215729 67 344 3.0 9.0 0.00 0.08 0.08 78 1010.2
20260506215224 68 359 6.0 10.0 0.00 0.08 0.08 75 1010.2
20260506214721 68 169 1.0 6.0 0.00 0.08 0.08 73 1010.1
20260506214218 68 282 2.0 6.0 0.00 0.08 0.08 73 1009.5
20260506213716 69 5 0.0 1.0 0.00 0.08 0.08 73 1009.4
20260506213213 69 232 2.0 7.0 0.00 0.08 0.08 73 1009.3
20260506212710 69 280 4.0 9.0 0.00 0.08 0.08 71 1009.5
20260506212206 70 244 5.0 6.0 0.00 0.08 0.08 71 1009.2
20260506211701 70 337 2.0 4.0 0.00 0.08 0.08 70 1009.1
20260506211158 70 248 4.0 7.0 0.00 0.08 0.08 70 1009.1
20260506210655 70 348 1.0 2.0 0.00 0.08 0.08 71 1009.4
20260506210152 70 4 2.0 6.0 0.00 0.08 0.08 71 1009.4
20260506205650 70 297 3.0 7.0 0.00 0.08 0.08 70 1009.1
20260506205149 70 84 0.0 2.0 0.00 0.08 0.08 78 1009.0
20260506204648 70 263 2.0 2.0 0.00 0.08 0.08 80 1009.2
20260506204144 69 113 0.0 2.0 0.00 0.08 0.08 80 1009.1
20260506203642 69 85 6.0 7.0 0.00 0.08 0.08 76 1008.9
20260506203139 68 82 1.0 1.0 0.00 0.08 0.08 80 1008.9
20260506202637 68 39 1.0 3.0 0.00 0.08 0.08 79 1008.8
20260506202133 69 40 2.0 2.0 0.00 0.08 0.08 79 1008.9
20260506201630 68 62 2.0 3.0 0.00 0.08 0.08 80 1008.8